JE4YKI-13 Weather Reports


time (UTC)temp
C
wind
direction
speed
KPH
gust
KPH
rain 1hr
cm
rain 24hr
cm
rain mn
cm
humidity
%
barometer
mb
20260508100310 17 5 1.6 0.0 0.00 0.00 0.00 38 1011.4
20260508095310 17 5 3.2 0.0 0.00 0.00 0.00 37 1011.4
20260508094309 18 287 6.4 0.0 0.00 0.00 0.00 36 1011.2
20260508093309 18 296 8.0 0.0 0.00 0.00 0.00 35 1011.0
20260508092313 18 279 4.8 0.0 0.00 0.00 0.00 34 1010.9
20260508091309 19 357 1.6 0.0 0.00 0.00 0.00 33 1010.7
20260508090308 20 273 8.0 0.0 0.00 0.00 0.00 32 1010.5
20260508085307 20 280 0.0 0.0 0.00 0.00 0.00 33 1010.4
20260508084306 20 352 4.8 0.0 0.00 0.00 0.00 34 1010.3
20260508083306 20 290 9.7 0.0 0.00 0.00 0.00 33 1010.3
20260508082306 19 355 3.2 0.0 0.00 0.00 0.00 33 1010.1
20260508081305 19 316 9.7 0.0 0.00 0.00 0.00 33 1010.1
20260508080305 19 295 0.0 0.0 0.00 0.00 0.00 34 1010.0
20260508075308 20 345 3.2 0.0 0.00 0.00 0.00 35 1009.9
20260508074304 20 300 3.2 0.0 0.00 0.00 0.00 35 1009.8
20260508073304 20 302 1.6 0.0 0.00 0.00 0.00 36 1009.5
20260508072307 20 238 3.2 0.0 0.00 0.00 0.00 35 1009.3
20260508071303 20 332 1.6 0.0 0.00 0.00 0.00 35 1009.3
20260508070302 21 295 8.0 0.0 0.00 0.00 0.00 37 1009.2
20260508065301 21 330 8.0 0.0 0.00 0.00 0.00 38 1009.1
20260508064301 21 25 14.5 0.0 0.00 0.00 0.00 35 1009.0
20260508063301 22 25 6.4 0.0 0.00 0.00 0.00 33 1008.7
20260508062300 22 276 3.2 0.0 0.00 0.00 0.00 34 1008.7
20260508061300 21 246 4.8 0.0 0.00 0.00 0.00 35 1008.7
20260508060300 22 269 8.0 0.0 0.00 0.00 0.00 31 1008.7
20260508055259 22 340 0.0 0.0 0.00 0.00 0.00 35 1008.7
20260508054259 22 266 0.0 0.0 0.00 0.00 0.00 37 1008.5
20260508053258 22 229 0.0 0.0 0.00 0.00 0.00 37 1008.6
20260508052258 22 298 3.2 0.0 0.00 0.00 0.00 37 1008.7
20260508050257 22 259 12.9 0.0 0.00 0.00 0.00 42 1008.6
20260508045257 23 222 6.4 0.0 0.00 0.00 0.00 41 1008.7
20260508044256 22 304 1.6 0.0 0.00 0.00 0.00 42 1008.6
20260508043255 22 276 4.8 0.0 0.00 0.00 0.00 44 1008.5
20260508042255 22 235 4.8 0.0 0.00 0.00 0.00 42 1008.6
20260508041255 22 233 1.6 0.0 0.00 0.00 0.00 49 1008.4
20260508040254 22 19 3.2 0.0 0.00 0.00 0.00 51 1008.1
20260508035255 22 334 1.6 0.0 0.00 0.00 0.00 52 1008.2
20260508034253 21 352 0.0 0.0 0.00 0.00 0.00 54 1008.3
20260508033253 23 355 0.0 0.0 0.00 0.00 0.00 50 1008.0
20260508032253 23 336 6.4 0.0 0.00 0.00 0.00 48 1007.6
20260508031252 23 240 6.4 0.0 0.00 0.00 0.00 47 1007.6
20260508030252 23 252 6.4 0.0 0.00 0.00 0.00 48 1007.7
20260508025251 22 324 6.4 0.0 0.00 0.00 0.00 52 1007.8
20260508024250 22 342 6.4 0.0 0.00 0.00 0.00 53 1008.0
20260508023250 22 279 1.6 0.0 0.00 0.00 0.00 54 1008.3
20260508022250 22 269 1.6 0.0 0.00 0.00 0.00 55 1008.3
20260508021249 21 240 11.3 0.0 0.00 0.00 0.00 55 1008.3
20260508020249 21 274 6.4 0.0 0.00 0.00 0.00 56 1008.4
20260508015249 21 283 14.5 0.0 0.00 0.00 0.00 54 1008.7
20260508014248 21 189 4.8 0.0 0.00 0.00 0.00 53 1008.5
20260508013248 20 333 4.8 0.0 0.00 0.00 0.00 52 1008.5
20260508012247 21 283 3.2 0.0 0.00 0.00 0.00 53 1008.5
20260508011247 20 245 3.2 0.0 0.00 0.00 0.00 61 1008.5
20260508010247 20 191 1.6 0.0 0.00 0.00 0.00 63 1008.4
20260508005247 20 276 0.0 0.0 0.00 0.00 0.00 70 1008.2
20260508004246 20 286 0.0 0.0 0.00 0.00 0.00 73 1008.3
20260508003246 20 224 3.2 0.0 0.00 0.00 0.00 68 1008.2
20260508002246 20 259 1.6 0.0 0.00 0.00 0.00 67 1008.1
20260508001245 20 165 1.6 0.0 0.00 0.00 0.00 70 1008.3
20260508000245 20 182 0.0 0.0 0.00 0.00 0.00 72 1008.1
20260507235245 20 129 1.6 0.0 0.00 0.00 0.00 73 1008.2
20260507234244 20 176 0.0 0.0 0.00 0.00 0.00 74 1008.3
20260507233242 20 145 1.6 0.0 0.00 0.00 0.00 77 1008.3
20260507232241 20 302 0.0 0.0 0.00 0.00 0.00 80 1008.4
20260507231241 19 302 0.0 0.0 0.00 0.00 0.00 81 1008.4
20260507225239 19 306 0.0 0.0 0.00 0.00 0.00 79 1008.4
20260507224239 19 233 0.0 0.0 0.00 0.00 0.00 79 1008.1
20260507223238 19 352 0.0 0.0 0.00 0.00 0.00 79 1008.3
20260507222238 19 28 0.0 0.0 0.00 0.00 0.00 80 1008.5
20260507221238 19 110 0.0 0.0 0.00 0.00 0.00 80 1008.6
20260507220237 19 103 0.0 0.0 0.00 0.00 0.00 80 1008.4
20260507215237 19 73 0.0 0.0 0.00 0.00 0.00 80 1008.3
20260507214237 18 231 0.0 0.0 0.00 0.00 0.00 83 1008.3
20260507213236 18 233 0.0 0.0 0.00 0.00 0.00 84 1008.3
20260507212236 18 37 0.0 0.0 0.00 0.00 0.00 84 1008.3
20260507211236 17 332 0.0 0.0 0.00 0.00 0.00 85 1008.2
20260507210235 17 332 0.0 0.0 0.00 0.00 0.00 85 1008.1
20260507205235 17 332 0.0 0.0 0.00 0.00 0.00 85 1008.3
20260507204234 17 354 0.0 0.0 0.00 0.00 0.00 86 1008.3
20260507203234 17 279 0.0 0.0 0.00 0.00 0.00 85 1008.4
20260507202234 17 311 1.6 0.0 0.00 0.00 0.00 86 1008.2
20260507201233 17 292 0.0 0.0 0.00 0.00 0.00 85 1008.1
20260507200233 17 292 0.0 0.0 0.00 0.00 0.00 85 1008.2
20260507195233 17 280 0.0 0.0 0.00 0.00 0.00 84 1008.2
20260507194232 18 316 0.0 0.0 0.00 0.00 0.00 82 1008.2
20260507193232 18 354 0.0 0.0 0.00 0.00 0.00 80 1008.1
20260507192232 18 356 0.0 0.0 0.00 0.00 0.00 78 1008.0
20260507191231 18 252 8.0 0.0 0.00 0.00 0.00 78 1008.5
20260507190231 19 245 0.0 0.0 0.00 0.00 0.00 77 1007.9
20260507185322 19 300 0.0 0.0 0.00 0.00 0.00 77 1007.7
20260507185230 19 300 0.0 0.0 0.00 0.00 0.00 77 1007.7
20260507184230 19 257 12.9 0.0 0.00 0.00 0.00 76 1008.3
20260507183230 19 290 3.2 0.0 0.00 0.00 0.00 78 1008.2
20260507182229 18 253 1.6 0.0 0.00 0.00 0.00 80 1008.3
20260507181229 18 207 0.0 0.0 0.00 0.00 0.00 82 1008.0
20260507180403 18 141 1.6 0.0 0.00 0.00 0.00 86 1008.4
20260507180229 18 141 1.6 0.0 0.00 0.00 0.00 86 1008.4
20260507175228 18 240 0.0 0.0 0.00 0.00 0.00 86 1008.1
20260507174228 18 138 1.6 0.0 0.00 0.00 0.00 88 1008.5
20260507173227 18 307 0.0 0.0 0.00 0.00 0.00 88 1008.5
20260507172227 18 277 0.0 0.0 0.00 0.00 0.00 88 1008.5
20260507171227 18 278 0.0 0.0 0.00 0.00 0.00 88 1008.5
20260507170227 18 250 0.0 0.0 0.00 0.00 0.00 88 1008.5
20260507165227 18 279 0.0 0.0 0.00 0.00 0.00 88 1008.6
20260507164226 18 285 1.6 0.0 0.00 0.00 0.00 86 1008.7
20260507163225 18 246 1.6 0.0 0.00 0.00 0.00 87 1008.8
20260507162225 18 271 0.0 0.0 0.00 0.00 0.00 87 1008.9
20260507161224 18 224 0.0 0.0 0.00 0.00 0.00 86 1009.0
20260507160224 19 259 3.2 0.0 0.00 0.00 0.00 86 1009.2
20260507155224 19 264 1.6 0.0 0.00 0.00 0.00 85 1009.3
20260507154223 19 285 1.6 0.0 0.00 0.00 0.00 85 1009.4
20260507153223 20 271 1.6 0.0 0.00 0.00 0.00 84 1009.5
20260507152423 20 262 0.0 0.0 0.00 0.00 0.00 83 1009.4
20260507152223 20 262 0.0 0.0 0.00 0.00 0.00 83 1009.4
20260507151222 20 266 0.0 0.0 0.00 0.00 0.00 83 1009.4
20260507150222 20 239 1.6 0.0 0.00 0.00 0.00 82 1009.5
20260507145222 20 271 3.2 0.0 0.00 0.00 0.00 82 1009.7
20260507144221 20 281 1.6 0.0 0.00 0.00 0.00 82 1009.7
20260507143221 20 263 0.0 0.0 0.00 0.00 0.00 82 1009.7
20260507142220 20 271 0.0 0.0 0.00 0.00 0.00 82 1009.7
20260507141220 20 267 1.6 0.0 0.00 0.00 0.00 82 1009.7
20260507135243 20 230 0.0 0.0 0.00 0.00 0.00 80 1009.6
20260507134219 20 259 0.0 0.0 0.00 0.00 0.00 80 1009.8
20260507133219 20 266 0.0 0.0 0.00 0.00 0.00 79 1010.1
20260507132218 20 271 1.6 0.0 0.00 0.00 0.00 79 1010.1
20260507131218 20 246 4.8 0.0 0.00 0.00 0.00 79 1010.1
20260507130218 20 268 0.0 0.0 0.00 0.00 0.00 77 1010.1
20260507125217 20 248 0.0 0.0 0.00 0.00 0.00 76 1010.1
20260507124217 20 241 0.0 0.0 0.00 0.00 0.00 76 1010.1
20260507123217 20 226 0.0 0.0 0.00 0.00 0.00 76 1010.1
20260507122216 20 230 0.0 0.0 0.00 0.00 0.00 76 1010.1
20260507121216 20 257 0.0 0.0 0.00 0.00 0.00 75 1010.0
20260507120215 20 279 0.0 0.0 0.00 0.00 0.00 75 1009.9
20260507115215 20 237 1.6 0.0 0.00 0.00 0.00 76 1009.9
20260507114215 20 288 3.2 0.0 0.00 0.00 0.00 77 1009.6
20260507113214 20 276 0.0 0.0 0.00 0.00 0.00 78 1009.7
20260507112214 20 280 1.6 0.0 0.00 0.00 0.00 76 1009.7
20260507111214 21 286 0.0 0.0 0.00 0.00 0.00 74 1009.6
20260507110214 21 258 3.2 0.0 0.00 0.00 0.00 71 1009.6
20260507105213 21 288 4.8 0.0 0.00 0.00 0.00 70 1009.4
20260507103212 22 293 3.2 0.0 0.00 0.00 0.00 68 1009.3
20260507101212 22 299 3.2 0.0 0.00 0.00 0.00 66 1009.3